Wind_Speed
63 64 65 65 65 66 67 68 69 67 65 64 64 64 65 65 67 68 67 65 65 64 63 62 62 62 62 62 62 62 62 62 62 62 62 62 62 62 61 61 60 59 59 58 57 56 55 55 54 53 52 51 51 50 49 49 49 49 48 48 49 49 50 50 50 50 49 49 47 45 45 46 43 40 39 41 42 41 41 41 42 46 48 47 45 43 44
58 60 61 61 61 63 65 66 68 67 66 65 65 66 66 67 68 68 67 66 66 65 64 64 63 62 62 62 62 63 63 62 62 62 62 62 62 62 61 61 60 60 59 58 58 58 57 57 56 55 55 54 53 53 52 50 50 50 50 49 50 50 51 52 52 51 50 50 48 45 45 46 46 45 43 43 44 44 44 44 43 46 48 48 48 46 45
54 55 56 56 57 60 62 63 64 64 64 63 63 64 66 67 68 68 67 67 66 65 64 64 63 63 63 63 63 62 62 62 62 62 63 63 63 62 62 62 61 61 60 60 60 59 59 59 59 58 58 57 55 55 55 53 52 52 52 52 52 52 53 53 53 53 53 52 51 49 49 50 52 52 51 50 50 50 49 46 44 47 50 49 51 52 51
53 54 55 56 56 58 59 59 59 59 58 58 58 59 60 62 64 65 65 65 65 64 63 62 62 63 63 63 63 62 62 62 62 62 63 63 64 64 63 63 63 62 61 61 61 61 60 60 61 61 60 60 59 58 58 57 56 55 55 55 55 55 55 55 55 56 56 55 55 54 54 55 57 58 59 58 57 56 54 50 48 52 54 54 54 56 56
54 54 55 56 57 57 57 56 56 55 54 53 53 53 54 56 57 59 60 61 61 61 61 61 61 61 61 61 62 61 62 62 62 63 63 64 64 64 64 64 64 64 63 63 62 63 63 63 63 64 63 63 63 62 61 60 59 59 58 58 58 57 57 56 57 57 58 58 58 57 58 59 61 63 65 65 64 64 62 59 59 60 62 62 62 61 60
55 54 54 56 57 57 56 56 56 56 54 53 53 53 53 53 54 54 55 56 56 56 56 56 57 57 58 59 59 60 60 61 62 63 64 65 65 66 65 65 64 64 64 64 65 65 65 66 66 66 66 65 66 66 66 64 62 62 61 60 59 58 58 59 59 59 59 60 60 61 61 62 63 64 67 69 69 69 68 68 68 69 70 71 71 69 68
57 56 56 57 57 57 57 57 57 56 55 55 55 56 56 55 54 54 54 53 53 52 52 53 53 54 55 56 57 58 59 59 61 62 63 65 65 66 66 65 64 63 62 64 65 65 65 66 66 66 66 66 67 68 68 67 65 63 61 60 59 58 58 59 60 60 60 60 61 63 63 63 64 65 67 70 72 73 73 73 74 74 76 76 75 76 76
59 58 58 59 59 58 58 57 56 56 56 57 58 59 59 58 57 57 56 54 53 53 52 53 53 53 54 55 56 56 57 58 59 61 62 63 64 65 65 64 63 61 60 60 61 62 63 63 64 65 65 65 66 67 67 66 64 62 60 58 58 58 58 59 60 60 60 60 60 62 63 65 65 66 67 69 72 75 77 78 78 78 78 78 78 79 80
60 60 61 62 61 59 57 57 58 58 59 59 60 61 61 61 60 59 58 58 57 56 56 56 56 56 56 56 56 56 57 58 58 59 60 61 61 62 62 62 61 59 58 57 57 59 60 60 60 61 63 63 63 64 65 64 63 62 60 59 57 57 57 58 58 58 58 59 60 61 63 65 66 68 69 70 71 73 76 77 78 79 80 81 82 82 82
62 63 64 64 63 60 59 60 61 62 62 63 63 64 64 62 61 61 61 61 61 61 60 60 60 60 59 59 58 58 58 59 59 59 60 60 60 60 60 60 59 58 57 56 56 58 59 59 58 59 61 61 60 61 62 62 61 61 62 61 60 59 58 56 55 55 56 58 60 61 62 65 67 68 70 72 73 73 75 76 77 78 80 81 82 83 84
64 65 66 66 65 63 62 63 64 64 65 66 67 67 66 64 63 63 64 65 65 65 65 65 64 64 63 62 62 62 62 61 61 61 61 61 61 61 61 61 60 59 58 57 57 59 60 60 60 60 61 62 61 61 60 60 60 61 62 62 62 61 60 58 55 55 56 58 60 61 62 64 66 68 70 72 73 73 74 75 75 76 78 79 81 81 82
66 67 68 68 67 65 64 65 66 67 68 69 70 69 67 66 66 67 67 68 69 69 69 69 68 68 67 66 65 65 65 65 64 64 64 64 64 64 64 64 63 62 62 62 61 62 63 63 64 63 64 64 64 64 63 62 61 62 63 64 63 62 61 60 58 57 58 59 60 61 62 63 65 68 70 72 72 72 73 73 74 75 76 77 79 80 81
68 69 69 69 68 66 66 67 69 70 72 73 72 70 69 69 70 71 71 71 72 72 72 72 72 72 71 69 68 68 68 68 68 67 67 68 68 68 68 68 67 67 67 67 66 67 67 67 68 67 67 67 68 68 67 66 65 66 67 67 66 65 64 64 62 60 60 61 61 61 62 64 65 67 69 71 71 71 71 71 71 72 73 75 77 79 80
70 70 70 70 69 68 68 70 71 73 75 75 73 72 72 73 74 74 74 74 75 75 75 75 75 75 74 73 72 72 72 73 73 72 72 72 72 72 71 71 71 71 71 71 70 71 71 71 71 71 71 71 71 71 71 70 70 70 71 70 69 69 69 67 65 64 64 64 64 63 64 66 67 68 69 70 70 70 70 70 70 71 72 74 77 79 81
72 72 72 71 70 69 70 71 72 74 76 76 75 74 75 75 76 77 77 77 77 77 77 77 77 77 77 77 77 77 77 77 77 77 77 77 76 76 75 75 74 74 73 74 74 74 75 76 76 75 75 74 74 74 74 74 74 74 74 73 72 73 72 71 70 68 68 68 67 67 67 68 70 71 71 71 71 71 71 71 71 72 73 75 77 80 81
73 74 74 73 72 71 71 72 73 74 75 76 76 76 76 76 77 78 79 79 79 79 79 79 79 80 80 80 80 80 80 81 81 81 81 80 80 79 79 78 78 77 76 76 77 77 78 79 80 80 80 78 78 78 78 78 78 78 78 77 77 76 76 75 74 73 72 72 71 70 70 71 72 74 75 75 74 74 73 73 74 74 76 77 79 81 82
73 74 74 74 74 73 73 73 74 74 74 75 76 76 76 76 76 77 78 79 79 79 80 81 81 82 82 83 83 82 82 82 83 83 83 83 83 82 82 82 82 81 80 79 79 80 81 82 83 84 84 83 82 81 82 82 82 82 82 81 81 80 80 79 78 77 76 76 74 73 73 73 74 76 77 78 78 78 77 77 77 78 78 80 81 83 83
72 73 74 74 75 74 74 74 75 75 75 75 76 76 76 76 77 77 79 79 80 81 81 81 82 83 83 84 84 84 84 84 84 84 85 85 85 85 85 85 84 84 83 82 82 82 82 83 85 86 87 86 86 85 86 86 86 85 85 84 84 83 83 83 82 81 79 79 78 78 77 76 75 76 78 79 80 80 80 80 80 81 82 82 83 84 84
72 73 73 74 74 74 74 74 75 75 76 77 77 77 78 78 78 79 79 80 81 81 81 82 82 83 84 84 85 85 85 86 86 86 86 86 87 87 87 87 87 87 87 86 85 84 83 84 85 86 86 87 87 87 88 88 88 88 87 87 87 86 85 85 84 83 82 81 81 81 80 79 78 78 78 80 80 81 81 82 82 83 84 85 85 85 85
72 72 73 73 74 74 74 74 74 74 75 76 77 78 79 79 80 80 80 80 80 81 81 82 83 83 84 85 85 86 86 87 87 87 87 87 87 88 88 88 88 89 89 89 88 86 85 85 85 84 84 85 86 86 87 88 88 88 88 88 88 88 88 87 86 85 83 82 81 82 81 80 79 78 78 79 80 80 81 81 82 83 84 86 87 87 86
71 72 72 72 73 73 73 74 74 74 74 74 74 75 76 77 79 80 80 80 81 81 81 81 82 83 84 84 84 85 85 86 86 86 86 86 87 87 88 89 89 89 88 88 88 87 86 86 86 84 83 83 83 83 84 85 85 85 85 85 86 86 87 87 86 85 85 83 82 82 81 80 78 77 77 77 77 78 79 80 81 82 83 85 86 87 87
68 68 69 69 70 71 72 73 74 73 73 72 72 72 72 73 75 76 77 77 78 78 78 78 79 80 81 81 81 81 82 83 83 83 83 84 85 85 86 86 86 85 85 84 84 83 83 83 83 83 82 82 81 80 79 79 78 78 78 80 81 82 83 84 84 84 84 83 82 81 80 78 77 77 78 77 76 75 76 78 79 80 81 82 83 84 84
61 62 63 64 66 67 68 69 70 70 70 70 69 69 69 69 70 71 71 72 72 73 73 73 74 75 75 76 75 75 76 77 77 78 78 78 79 79 79 79 79 78 78 77 76 76 76 77 77 77 77 78 78 77 75 73 70 69 69 71 73 74 76 78 79 79 79 79 79 78 77 75 75 75 76 77 77 75 75 75 76 76 76 77 78 78 78
55 56 57 58 59 61 61 62 63 64 64 65 65 65 65 65 65 65 65 65 65 65 66 66 66 66 67 67 67 68 69 70 70 70 70 70 71 71 71 72 72 72 72 71 70 69 69 69 70 70 70 71 72 72 71 69 66 64 62 63 64 67 69 70 71 72 72 72 73 73 72 72 72 72 73 74 75 75 74 73 72 71 70 71 72 72 72
51 52 53 54 54 55 56 57 57 58 58 58 59 59 60 60 60 60 60 60 59 59 59 59 59 58 59 60 61 61 62 63 64 63 64 65 65 66 66 67 68 68 68 68 67 66 65 64 64 65 65 67 68 68 68 67 65 62 60 59 59 61 63 64 65 66 67 67 67 67 67 68 69 69 69 70 71 72 72 70 68 66 65 66 66 66 66
48 49 50 51 52 52 53 54 54 54 53 54 54 55 55 55 55 55 56 56 56 55 55 55 56 56 56 56 57 57 58 59 60 60 60 61 62 62 63 63 64 65 65 65 65 64 62 61 60 60 61 62 63 63 63 63 62 60 58 57 56 57 59 60 61 62 63 63 63 63 63 64 65 65 66 66 67 68 68 66 63 62 62 62 61 61 61
46 47 48 49 50 51 52 52 52 51 51 51 52 52 51 51 52 52 52 52 52 52 52 52 53 53 53 52 53 53 53 54 55 55 55 56 57 58 58 59 60 61 62 62 62 62 61 59 58 56 56 57 57 57 58 58 58 57 57 56 54 54 55 56 57 58 59 59 59 60 60 61 62 62 62 63 64 64 63 62 60 59 59 58 58 58 59
44 45 46 47 48 49 50 50 50 50 50 50 51 51 50 50 50 50 49 49 49 49 49 49 50 50 50 49 49 49 49 50 50 50 51 52 53 54 55 55 56 56 57 57 58 57 57 56 56 55 54 53 53 53 53 53 53 54 54 53 52 51 51 51 52 53 54 54 55 56 57 58 59 59 59 59 60 60 59 58 57 56 55 56 56 57 57
41 42 43 45 46 47 47 47 47 47 48 49 49 49 49 49 49 49 48 48 47 47 47 48 48 48 47 47 47 47 47 46 47 47 47 48 49 50 50 50 50 51 51 51 51 52 52 52 52 52 51 50 50 50 49 49 50 50 51 51 50 49 49 49 48 49 50 50 50 51 53 54 55 56 56 56 56 56 55 54 53 53 53 53 54 54 54
39 40 41 42 43 44 44 45 45 45 46 46 47 47 48 48 48 47 47 46 46 46 47 47 46 45 45 45 46 45 44 44 44 45 45 45 45 45 45 46 46 46 46 46 47 47 47 47 47 47 47 47 47 47 46 46 46 46 47 47 47 47 47 46 45 45 46 47 48 49 50 51 52 54 54 53 53 53 52 51 51 51 51 51 51 50 50
37 38 39 39 40 40 41 42 42 43 43 44 44 45 46 46 46 46 45 45 45 45 45 45 44 43 42 43 43 43 43 43 42 42 42 42 42 42 42 42 42 42 42 43 43 43 43 43 43 43 43 43 43 43 43 43 43 43 43 43 44 44 44 43 43 43 43 44 45 47 47 49 50 50 50 50 50 49 49 48 49 49 49 48 47 46 46
36 37 38 38 38 39 40 41 41 40 41 41 41 42 42 43 43 43 42 42 42 43 43 42 41 40 41 41 41 41 41 41 40 39 38 38 39 39 39 39 39 39 39 39 40 40 40 40 40 40 40 40 40 40 40 40 40 40 39 39 40 40 40 40 40 40 40 42 43 44 45 46 47 48 48 47 46 46 46 46 47 47 46 45 44 43 43
36 36 36 37 37 38 38 39 39 39 39 39 39 39 39 39 40 40 39 40 41 41 40 40 39 39 39 39 39 38 38 38 36 35 35 36 36 36 36 36 36 36 36 37 37 37 37 36 36 36 36 36 36 37 37 37 37 37 37 37 37 37 37 37 37 37 37 39 40 42 43 44 45 45 45 45 44 44 44 45 45 44 43 42 42 41 41
35 35 35 35 35 36 36 37 37 37 37 38 38 37 37 37 37 37 37 38 38 39 38 38 37 37 36 36 35 35 35 35 34 33 33 33 33 33 33 33 34 34 34 33 33 33 33 33 32 32 32 32 32 33 33 33 33 33 34 34 34 34 34 35 35 35 35 36 38 39 40 42 42 43 43 43 43 43 43 43 42 42 41 41 40 40 39
35 34 33 33 34 34 34 35 35 35 35 35 35 35 35 35 35 35 35 36 36 36 36 36 35 34 34 33 32 33 33 32 32 31 31 31 31 31 31 31 31 31 31 30 30 30 30 30 30 29 29 29 29 29 29 30 30 30 30 30 30 31 31 32 32 33 33 34 35 36 38 39 40 40 41 41 42 41 41 41 41 40 40 39 39 38 38
34 34 33 33 33 33 33 33 33 33 33 33 33 33 32 32 33 33 33 33 34 34 34 33 32 31 31 31 31 31 31 30 30 29 29 29 29 28 29 29 29 29 28 27 27 28 28 28 28 28 27 27 27 27 26 26 26 26 26 26 27 27 27 28 29 30 31 32 33 34 35 36 37 38 38 39 40 40 39 39 39 39 39 38 38 38 38
35 34 33 33 33 33 33 32 32 31 31 31 30 30 30 30 31 31 32 31 32 32 31 31 30 30 30 29 29 29 29 29 28 27 27 27 26 26 27 27 27 26 26 25 25 25 25 26 26 26 25 25 25 25 24 24 23 23 23 23 23 23 24 25 26 27 28 29 30 31 33 34 34 35 36 36 37 37 38 38 38 38 38 38 38 38 38
35 34 33 33 33 32 32 31 31 30 30 29 29 29 29 28 29 30 30 29 30 29 29 29 28 28 28 28 27 27 27 27 26 25 25 25 24 24 25 25 24 24 24 24 23 23 23 23 24 24 24 23 23 23 22 22 21 21 21 20 21 21 21 21 22 23 25 27 28 29 31 32 32 33 34 34 35 35 36 36 36 36 36 37 37 37 37
35 34 34 33 33 32 31 30 30 29 29 29 28 28 27 27 28 29 28 28 28 28 27 27 27 27 27 26 25 25 25 26 24 23 23 23 22 22 23 22 22 22 23 22 22 21 21 21 21 21 22 21 21 21 21 20 20 19 19 18 18 18 19 19 20 21 22 24 25 27 28 30 31 31 32 32 33 33 33 34 34 35 35 36 36 35 34
34 34 34 33 32 32 31 30 29 29 28 28 27 27 27 27 27 28 28 27 26 26 26 26 26 26 25 25 24 23 23 24 23 22 22 21 21 21 21 21 20 21 21 22 21 21 20 19 19 19 19 19 19 19 18 18 18 18 17 17 16 16 17 17 18 19 20 21 23 24 26 27 28 29 30 30 31 31 32 33 33 34 34 34 34 33 32
34 34 33 33 32 31 30 30 29 28 28 27 27 27 26 26 26 27 27 26 25 25 25 25 25 25 24 23 22 22 21 22 22 22 21 21 20 20 19 19 19 19 20 21 21 20 19 18 17 17 17 17 17 17 17 16 16 16 16 15 15 15 15 16 16 17 18 20 21 23 24 25 26 27 27 28 29 29 30 31 32 32 33 33 33 32 32
33 33 33 32 31 31 30 30 29 28 28 27 27 26 26 26 26 26 27 26 25 24 24 24 24 24 24 23 22 21 21 21 21 21 21 21 20 19 19 19 18 18 18 19 20 19 18 17 16 15 15 15 15 15 15 15 15 14 14 14 14 14 14 14 14 15 16 18 19 21 22 24 25 26 27 27 28 29 30 31 31 32 32 32 32 32 32
33 33 32 31 31 31 30 29 29 28 27 27 27 26 26 25 25 25 26 26 25 24 23 22 23 23 23 22 21 21 21 20 20 20 21 21 20 19 19 19 19 18 18 18 19 19 18 16 15 14 14 14 14 13 13 13 13 13 13 12 12 12 12 13 13 14 14 16 17 19 21 22 24 25 26 27 28 29 30 30 31 31 32 32 32 32 32
32 32 32 31 31 31 30 29 29 28 27 27 27 26 25 25 25 25 25 25 25 24 23 22 22 22 22 22 21 21 21 20 20 20 20 21 20 20 19 19 19 19 19 19 19 19 18 16 15 14 13 13 13 13 13 13 13 13 12 12 12 12 12 12 12 13 13 14 15 17 18 20 22 23 25 26 27 28 29 29 30 30 31 31 31 31 31
30 32 32 31 30 31 30 30 29 28 28 27 27 26 26 25 25 25 24 24 24 24 24 22 22 21 22 22 21 21 21 21 20 21 21 21 21 20 20 20 20 20 19 19 19 19 18 17 16 15 14 14 14 13 13 13 13 13 13 13 13 13 13 13 13 13 13 13 14 15 17 18 19 21 22 24 25 26 27 28 29 29 30 30 30 30 30
30 31 32 32 30 30 30 30 29 29 28 27 27 26 26 25 25 26 25 24 24 24 24 23 22 21 21 21 21 21 21 21 21 21 22 22 22 21 21 21 21 21 20 20 20 20 19 18 17 16 16 16 15 15 15 14 14 14 14 14 14 14 14 14 14 14 14 14 15 15 16 17 18 19 20 21 23 24 24 26 27 28 28 29 29 29 29
30 30 32 32 31 30 30 30 30 29 29 28 27 26 26 26 26 26 26 25 25 24 24 23 23 22 21 21 21 21 22 22 22 22 22 22 23 23 23 22 23 22 22 22 22 21 21 19 18 18 18 18 17 17 17 16 16 15 15 15 15 16 16 16 16 16 16 16 17 17 17 18 18 19 20 21 22 22 23 23 24 25 26 27 27 28 28
30 30 32 32 31 30 30 30 30 29 29 29 28 27 26 26 26 26 26 26 26 25 24 23 23 23 22 22 21 22 22 22 23 23 23 23 23 24 24 24 24 24 24 24 24 24 23 21 20 19 20 20 20 19 19 18 18 18 17 17 17 17 18 18 18 19 19 19 19 19 19 19 20 20 20 21 22 22 23 23 24 25 26 26 27 27 28
29 30 31 32 32 31 30 30 30 30 29 29 29 28 27 26 26 26 26 26 26 26 25 24 24 23 23 23 22 22 22 22 23 24 24 24 24 24 24 25 25 26 26 26 26 26 25 24 23 22 21 21 21 21 21 21 20 20 20 20 20 19 19 20 20 21 21 21 21 21 21 21 22 22 23 23 23 24 24 24 25 25 26 27 28 28 29
29 30 31 32 32 31 30 30 30 30 29 29 29 28 27 27 26 26 26 26 26 26 26 25 24 24 23 23 23 23 23 23 23 24 24 24 24 24 25 25 26 27 27 28 28 28 28 27 26 25 24 24 23 23 23 23 23 23 23 23 23 22 22 22 22 23 23 23 24 24 24 24 24 24 24 25 25 26 26 26 26 27 27 28 29 29 30
30 30 31 32 32 31 31 30 30 30 30 29 29 29 28 28 27 27 26 26 26 26 26 26 25 24 23 23 23 24 24 24 24 24 25 25 25 25 25 26 27 28 28 29 30 30 30 30 30 29 28 27 27 26 26 26 26 26 27 27 27 26 26 26 25 25 25 26 26 26 27 27 27 27 27 27 27 28 28 29 29 29 30 30 30 31 31
31 30 31 31 32 32 31 31 31 31 31 30 29 29 29 28 28 28 27 26 26 26 27 27 27 26 25 24 23 23 24 24 25 25 25 25 25 25 25 26 27 28 29 30 30 31 32 32 33 32 32 31 31 31 30 30 30 30 30 30 30 30 30 30 30 29 29 29 29 29 29 30 30 30 31 31 31 31 31 31 32 32 32 32 32 33 33
Wind_Direction
254 256 256 254 255 256 258 258 257 254 252 253 255 257 258 259 260 261 261 260 260 260 260 260 260 261 262 262 262 262 261 261 262 262 263 263 263 263 264 264 264 265 265 266 266 266 265 264 264 263 261 260 259 258 257 256 256 256 255 255 254 254 253 253 252 252 252 253 254 254 251 249 250 252 254 257 257 255 255 255 258 260 261 263 267 270 272
253 255 256 256 255 255 256 257 258 257 255 254 254 255 257 258 259 260 260 261 260 260 260 259 259 260 260 261 261 262 262 262 262 262 262 263 263 263 263 264 264 264 264 265 265 265 264 264 263 261 261 260 259 258 257 255 255 255 255 254 254 254 254 255 254 254 253 253 253 250 244 242 243 243 244 247 248 248 247 248 252 258 260 260 261 261 262
251 252 254 255 255 256 256 255 256 257 257 256 255 255 256 257 258 258 259 259 259 259 259 259 259 259 259 259 260 261 262 262 262 263 263 263 263 263 263 263 263 263 263 264 264 264 264 264 264 262 261 260 259 258 258 256 255 255 254 254 254 254 255 256 256 255 254 253 252 249 243 241 243 243 241 241 242 243 244 245 248 253 256 257 257 257 257
252 253 254 255 256 257 258 258 259 259 259 259 257 256 255 256 256 257 257 257 257 257 257 257 258 258 258 258 259 259 260 260 261 262 262 263 263 263 263 264 264 264 264 264 264 265 265 265 265 264 263 262 260 259 259 258 256 255 254 254 254 254 254 255 256 257 257 255 254 252 247 243 244 245 244 242 241 241 242 241 242 247 251 252 252 253 255
255 256 257 258 259 261 262 264 265 265 264 264 262 260 258 257 256 257 257 257 256 256 256 256 256 257 257 258 259 259 260 260 261 261 262 262 263 263 263 264 265 265 266 266 266 266 265 265 265 265 265 264 263 262 260 259 258 256 255 254 253 254 254 255 255 256 258 258 257 255 252 248 246 245 246 246 244 243 242 240 240 244 247 249 250 251 252
255 256 257 258 260 262 264 265 266 267 268 268 268 267 264 261 259 258 258 257 257 256 256 256 256 256 257 257 258 258 259 259 260 261 262 262 263 263 263 263 263 263 264 265 265 265 265 265 265 265 265 265 265 264 263 261 259 257 256 255 255 254 255 255 255 255 256 258 258 257 255 252 250 247 246 247 247 246 245 244 243 244 247 249 251 252 253
255 256 256 257 258 260 261 262 264 266 268 269 269 269 268 266 264 262 261 260 259 259 258 258 257 257 257 257 258 258 258 258 258 259 259 260 261 262 262 262 262 261 261 261 262 262 262 263 263 264 264 264 264 264 264 264 263 261 260 259 259 258 257 257 257 257 257 257 258 258 256 255 253 251 248 246 246 246 247 247 247 248 249 251 252 254 255
256 257 257 257 257 258 259 261 263 265 265 265 266 266 266 267 267 266 266 265 264 263 262 261 260 259 258 257 257 257 257 257 257 257 258 258 259 260 260 261 262 262 261 261 261 261 261 261 262 262 263 264 264 265 266 267 267 267 265 263 261 260 260 259 259 259 259 258 257 257 257 256 254 253 251 248 246 246 247 249 250 250 251 253 254 255 256
255 256 256 257 257 258 259 260 261 261 261 261 262 263 264 265 266 267 268 268 267 266 265 264 263 262 261 259 258 258 257 257 257 257 257 258 259 260 260 261 262 262 262 262 262 263 262 262 261 261 262 263 264 265 267 268 268 269 268 266 263 261 260 259 259 259 259 258 257 256 255 255 254 253 253 252 250 249 249 250 251 252 253 254 255 257 257
252 254 255 256 257 258 258 258 259 259 260 260 261 261 262 263 265 266 267 267 267 267 266 265 265 264 263 263 262 262 261 260 260 260 260 260 260 260 261 262 262 263 263 263 263 263 264 264 264 263 263 263 263 263 264 266 267 267 267 267 265 263 261 259 258 257 257 256 256 255 253 253 253 253 253 253 253 253 253 253 253 254 255 255 256 257 258
251 252 254 255 256 257 258 259 259 260 260 261 261 261 262 263 264 265 265 266 266 266 265 265 265 265 265 265 265 265 265 264 264 264 264 263 263 263 263 263 263 263 263 263 262 262 263 263 263 263 264 264 263 262 262 262 262 263 263 263 262 262 262 261 259 257 256 254 254 253 252 251 251 252 252 253 254 255 255 255 255 255 255 256 257 257 258
251 251 252 254 255 256 257 258 259 260 261 261 262 262 263 264 264 264 264 265 265 266 266 266 266 265 265 265 266 266 266 266 266 266 266 266 266 266 265 265 264 264 263 262 261 260 260 261 261 260 261 261 262 262 262 261 261 261 261 260 260 260 260 260 259 257 256 255 254 253 252 251 251 251 252 253 254 254 254 254 255 255 255 255 256 257 257
252 252 252 253 253 254 254 255 256 258 259 259 261 263 264 264 264 265 265 265 265 265 266 266 267 267 267 267 267 267 266 266 266 265 265 265 265 265 265 265 265 264 264 263 262 261 261 261 261 261 261 261 262 262 262 262 261 261 261 261 261 261 259 258 257 256 256 255 255 254 254 253 252 252 252 253 253 253 254 254 254 254 254 254 255 256 256
255 254 254 254 254 253 253 254 254 255 257 258 259 260 261 261 262 263 264 264 265 266 266 267 268 268 269 268 268 267 267 266 266 265 264 264 264 264 264 264 264 265 265 266 265 265 264 264 263 263 263 263 263 263 263 262 262 261 262 262 262 262 261 261 259 258 256 256 255 255 255 255 254 253 253 253 253 253 253 253 253 254 254 254 255 255 257
256 256 256 256 256 255 254 254 254 255 256 257 258 258 258 259 260 261 262 263 264 265 266 266 267 268 268 268 268 268 267 267 267 267 266 266 265 265 265 265 265 265 265 266 267 267 267 267 266 265 264 264 264 264 264 263 263 263 263 262 262 262 262 262 261 260 258 257 256 255 255 256 256 256 255 254 254 254 254 254 254 254 255 255 256 257 259
256 257 257 257 257 257 256 256 256 256 257 258 259 259 259 259 260 261 262 263 264 264 265 266 266 267 267 267 267 267 268 268 268 268 268 268 268 267 267 267 266 266 265 265 265 266 267 267 267 267 266 265 265 264 264 264 264 264 264 263 263 263 262 262 261 260 260 258 257 255 255 255 257 258 258 257 256 256 255 255 255 255 256 256 257 259 260
255 256 257 258 258 258 258 258 258 258 258 259 260 260 261 261 261 262 263 263 264 265 265 265 265 266 266 266 267 267 267 268 268 269 269 269 269 269 268 268 267 267 266 265 265 265 265 266 266 267 267 267 266 266 265 265 265 264 264 264 264 263 263 263 262 261 261 260 259 258 256 254 255 256 257 259 259 258 258 257 257 256 256 257 258 259 261
256 257 257 258 258 258 258 259 260 260 261 261 261 262 262 262 262 262 262 263 263 263 264 264 265 266 266 267 267 268 268 268 269 269 269 270 270 270 270 270 269 269 268 267 265 264 264 264 264 265 266 266 266 266 266 266 266 266 265 265 265 264 264 264 263 263 262 261 261 260 259 257 256 255 255 257 258 259 259 259 259 259 259 259 260 260 261
258 259 259 259 259 259 259 259 259 259 260 261 262 262 262 262 262 262 262 262 263 264 264 265 265 266 267 267 268 268 268 269 269 269 269 270 270 270 271 271 271 271 270 269 268 267 265 264 263 263 263 264 264 264 264 265 265 265 265 265 265 265 265 264 264 263 263 262 262 261 260 259 258 257 256 256 256 257 258 259 260 261 261 262 262 262 262
260 260 261 261 261 262 262 261 261 260 260 260 260 261 262 263 263 263 263 263 264 264 264 265 265 266 266 267 267 268 268 269 269 269 269 270 270 270 270 270 270 270 270 270 270 269 269 268 267 265 264 264 263 263 263 263 263 263 264 264 264 265 265 265 265 264 264 263 263 262 262 261 260 258 257 257 257 257 257 257 258 259 260 261 262 263 263
261 261 262 263 263 264 264 265 265 264 264 263 262 261 261 262 263 263 264 264 264 265 265 265 265 266 266 267 267 267 268 268 268 269 269 270 270 270 270 269 269 269 269 269 270 270 270 270 270 269 268 267 266 264 263 263 263 263 263 263 263 263 264 264 265 265 264 264 263 263 263 263 262 262 260 259 258 257 257 257 257 258 258 259 261 262 263
261 262 263 263 264 264 265 265 266 266 266 265 265 265 264 264 264 264 264 264 265 265 265 266 266 266 266 267 267 267 268 268 269 269 269 269 269 268 268 269 269 269 269 269 269 269 269 269 270 270 270 270 269 267 266 264 263 263 263 263 263 263 263 263 264 264 264 264 264 264 263 263 263 263 263 262 260 258 257 257 257 257 257 258 259 261 262
262 263 263 263 263 263 263 264 264 265 266 267 267 267 267 266 266 266 266 266 266 266 266 266 266 267 267 267 268 268 268 269 269 269 269 269 269 269 269 270 270 270 269 269 268 268 268 268 268 268 268 268 268 268 268 267 265 263 262 262 262 262 262 262 262 262 262 262 263 263 263 262 262 261 262 262 262 260 259 257 257 257 257 258 259 260 261
263 263 263 263 263 263 264 264 264 265 266 266 267 268 268 268 268 268 268 268 268 268 267 267 267 268 268 269 269 269 269 269 269 269 270 270 270 270 270 270 270 270 269 269 269 268 268 268 268 268 268 269 269 269 270 269 268 266 264 263 262 261 261 261 261 261 260 260 260 260 260 260 260 259 259 259 260 260 259 259 258 257 258 258 259 259 260
264 264 264 265 265 265 265 265 265 266 266 267 267 268 268 269 270 270 270 270 270 270 270 270 270 269 269 269 269 269 269 270 270 270 270 270 270 270 270 271 271 271 271 271 271 270 269 269 268 268 268 268 268 268 269 269 269 268 266 264 263 261 261 260 260 259 259 259 258 258 258 257 257 258 257 257 258 258 259 259 259 259 259 258 259 259 259
266 267 267 267 267 267 267 267 267 267 268 268 268 268 268 268 269 269 269 270 270 270 271 271 271 270 269 269 269 269 269 270 270 270 270 270 270 270 270 271 271 272 272 272 272 272 271 270 268 267 266 265 265 266 267 268 268 268 267 265 262 260 259 258 258 257 257 257 257 257 257 256 256 256 256 256 257 257 258 258 258 258 258 258 258 258 258
267 267 268 269 269 270 270 270 271 271 271 271 271 270 270 270 270 269 269 270 270 271 271 271 271 270 270 269 269 269 269 269 269 269 269 270 270 270 270 269 269 269 269 270 271 271 271 271 271 269 268 267 267 267 267 267 267 267 266 264 262 259 257 256 256 255 255 255 255 255 255 255 255 255 255 255 256 256 257 258 258 258 258 258 257 257 256
269 269 268 269 269 269 270 271 272 272 273 273 273 273 273 273 272 272 272 272 272 272 273 273 273 273 273 272 272 272 271 271 271 271 271 270 270 269 269 269 269 269 269 269 270 271 271 272 272 271 270 269 268 267 266 265 265 264 264 263 262 260 258 256 254 254 254 253 253 253 253 254 254 254 254 254 255 256 257 257 258 257 257 256 255 255 254
273 272 272 271 271 272 272 273 273 273 272 272 272 273 273 273 273 273 273 274 274 274 274 274 274 275 275 275 275 275 274 274 274 273 272 271 270 270 270 270 270 270 269 269 269 269 269 268 268 268 268 267 266 265 264 263 263 262 262 262 261 259 257 255 253 252 251 251 250 250 250 251 252 252 252 252 253 254 255 255 255 255 255 254 254 253 253
275 275 274 274 274 275 275 275 274 274 273 273 273 273 273 272 273 273 273 274 274 274 274 274 274 275 276 277 277 277 277 277 276 275 274 274 273 273 272 272 271 270 270 269 268 268 267 266 266 266 266 265 265 264 264 262 261 260 260 260 259 258 257 255 253 251 250 249 248 247 247 248 249 250 250 251 252 253 253 253 253 253 253 253 253 253 253
278 278 278 278 279 279 279 277 276 275 274 274 273 272 272 272 272 272 273 273 273 273 274 274 275 276 277 278 278 279 279 278 277 276 275 275 275 274 273 272 271 271 270 269 268 268 267 266 265 265 265 264 264 263 263 262 261 260 259 258 258 258 257 255 253 251 249 248 247 246 246 245 246 247 249 249 250 251 251 251 251 251 252 252 252 253 253
281 281 282 283 283 283 283 282 281 280 279 277 275 274 272 272 272 272 272 272 273 273 274 275 277 278 279 279 279 279 279 277 276 276 275 274 273 272 272 271 271 270 269 268 268 267 266 266 265 264 264 263 263 262 262 261 261 260 259 258 257 256 255 254 253 251 249 247 246 245 245 245 246 246 247 248 249 249 250 250 250 251 251 251 252 252 252
281 282 283 284 284 284 283 283 283 283 282 280 279 277 275 274 273 273 273 273 273 274 276 277 279 279 279 279 279 278 277 276 275 275 274 272 271 271 270 269 269 268 267 267 267 267 267 266 266 265 264 263 263 262 261 261 260 259 257 256 255 254 252 251 250 248 247 245 245 244 244 244 245 245 246 247 247 247 248 248 249 250 251 251 251 251 250
282 283 284 284 284 284 285 284 284 284 282 281 280 278 277 276 275 274 274 274 275 276 277 278 279 279 279 278 278 277 276 275 275 273 272 270 270 269 269 268 268 267 267 267 267 267 266 266 265 264 264 263 262 262 261 260 259 258 256 255 254 252 250 249 247 245 243 242 242 242 242 243 243 244 244 245 245 245 246 247 249 249 250 250 250 250 250
283 284 286 286 287 288 288 287 287 285 284 282 280 279 277 276 275 275 274 275 276 277 278 279 279 279 278 278 277 276 275 274 273 272 270 270 269 268 268 267 267 266 266 266 266 266 265 264 263 263 262 261 261 261 261 261 260 259 258 256 254 252 250 248 246 244 242 240 240 240 240 241 242 242 243 244 244 245 245 246 247 248 249 249 250 250 250
285 287 288 290 290 291 290 290 289 288 286 283 281 279 278 276 275 275 275 276 277 278 279 279 279 279 279 278 277 276 274 274 273 272 271 270 270 269 268 267 267 267 266 265 264 264 263 263 262 261 261 260 259 259 259 260 260 259 258 256 254 252 249 247 245 242 241 239 238 238 238 239 239 240 241 242 243 244 244 245 246 247 248 249 249 249 250
287 288 290 292 292 292 292 292 291 290 288 285 282 279 278 277 276 276 276 278 278 279 280 281 280 279 278 277 276 275 274 272 272 271 271 270 270 269 268 268 268 267 266 264 263 262 262 262 262 261 260 260 259 259 258 258 258 257 256 255 254 251 248 245 243 240 239 237 237 236 236 237 238 238 239 240 241 242 242 243 244 245 246 247 248 248 249
287 289 291 292 292 293 293 293 293 292 290 287 283 280 278 277 277 278 279 280 281 282 282 282 280 279 278 276 275 273 272 271 270 270 269 269 268 268 267 267 268 267 264 262 261 260 260 261 261 262 261 261 260 259 258 257 256 254 254 253 252 250 247 244 241 238 236 234 234 233 233 233 234 235 235 236 238 239 240 241 242 243 244 245 246 246 247
286 288 290 292 292 293 294 294 294 293 292 289 285 281 279 279 279 279 280 282 283 283 283 282 281 279 277 275 273 271 270 270 269 268 267 267 266 266 266 267 267 265 263 261 259 258 258 258 259 260 261 261 261 260 259 258 256 253 251 249 248 247 245 242 238 235 233 231 230 231 231 231 232 233 234 234 235 237 238 239 240 241 242 243 244 245 247
285 287 289 291 292 293 294 295 295 294 293 291 287 283 281 280 280 281 282 283 284 284 284 283 281 279 277 274 272 270 269 269 269 267 265 264 263 263 264 265 265 264 263 261 259 258 258 256 255 255 257 259 260 260 259 259 258 256 252 248 243 241 240 238 236 233 231 229 227 226 227 228 230 231 232 233 234 235 236 237 238 240 241 242 244 245 245
283 286 288 290 292 293 294 295 295 295 294 292 289 285 283 281 281 282 284 285 285 285 284 283 281 279 276 273 270 268 267 267 266 265 263 261 260 260 261 262 262 262 261 260 259 259 259 257 252 249 250 252 255 256 256 257 257 257 255 252 246 240 236 234 233 231 230 228 226 224 223 223 224 225 227 228 230 231 233 235 236 238 239 241 242 242 242
283 285 287 289 291 293 294 295 295 295 294 293 290 287 284 282 282 283 284 286 286 286 285 283 281 279 276 274 270 267 265 263 262 261 261 260 259 258 259 259 258 258 257 256 256 257 258 257 253 248 245 245 247 250 252 252 253 253 253 252 250 246 240 235 231 229 228 228 227 225 224 222 221 221 221 222 224 225 227 229 231 233 235 236 237 237 238
283 285 287 289 291 292 293 294 295 295 294 293 291 289 286 283 283 283 284 286 287 286 285 282 280 278 276 274 270 267 265 262 259 257 257 257 256 256 256 256 256 255 254 254 254 255 256 257 256 252 247 241 239 239 241 244 246 247 246 245 244 244 241 238 234 231 227 225 224 224 224 224 223 222 222 221 222 223 224 225 227 229 231 232 233 234 235
283 285 287 288 290 291 293 293 294 294 294 293 292 290 287 285 283 283 284 285 286 287 285 283 280 278 276 273 271 268 265 263 259 255 253 252 252 252 252 253 255 255 254 253 253 254 255 256 256 255 252 247 240 235 232 231 233 234 236 236 236 235 234 233 232 231 228 225 222 222 222 223 224 224 224 224 223 224 224 225 227 228 229 230 231 232 233
283 284 285 287 289 290 291 292 293 293 293 293 292 291 289 286 284 283 283 283 285 286 285 283 280 277 275 273 271 268 265 263 259 255 251 249 248 248 248 249 251 253 254 253 253 252 253 254 254 254 253 250 246 241 236 232 229 227 226 225 226 227 227 226 224 224 224 223 222 222 222 223 224 225 225 226 226 227 227 227 227 228 229 229 230 230 230
283 283 284 285 287 288 290 291 292 292 292 292 292 291 290 288 286 284 283 283 283 283 284 283 281 278 275 273 271 268 265 263 260 257 253 250 247 246 245 245 245 247 250 252 253 252 252 251 251 252 251 250 249 245 241 238 235 232 228 223 221 220 221 222 222 222 221 220 220 221 222 223 224 225 226 226 227 228 229 229 229 229 229 229 229 229 228
283 282 283 284 286 287 288 289 290 290 291 291 291 291 290 289 287 285 283 282 282 282 282 282 281 279 276 273 270 268 266 263 261 259 256 253 249 247 244 243 242 242 244 246 249 251 251 250 250 250 250 250 249 248 246 243 240 238 236 232 227 223 221 220 221 222 222 222 221 221 221 222 223 225 226 227 227 228 228 228 228 228 229 229 229 228 227
282 281 282 283 284 285 286 287 288 289 289 290 291 291 290 289 288 286 284 282 281 280 280 280 279 279 277 274 270 267 265 264 262 260 258 255 252 249 246 243 242 241 241 242 244 247 248 249 248 248 249 249 250 250 250 249 246 244 242 240 237 233 229 226 224 224 225 225 225 224 223 222 222 223 224 226 227 228 229 228 228 227 228 228 228 227 226
282 281 281 281 283 284 285 285 286 286 287 289 289 290 290 289 288 286 284 282 280 279 279 278 278 277 277 275 272 268 265 263 262 260 259 257 255 253 250 247 244 242 241 241 242 243 245 246 246 245 246 247 249 250 251 252 252 251 249 248 246 244 240 237 234 231 230 229 229 229 228 227 226 225 224 225 226 227 228 229 230 230 229 229 229 228 227
282 281 280 281 282 283 283 284 284 285 285 286 288 289 289 289 288 286 285 283 280 279 277 277 277 276 275 274 273 270 267 264 262 260 259 258 256 255 253 250 248 245 243 241 241 241 242 243 244 243 243 243 244 246 248 249 250 251 251 251 250 249 248 246 244 241 239 237 235 234 233 233 232 231 230 229 228 228 228 228 229 230 231 231 232 232 232
283 282 281 281 282 282 283 282 283 283 284 284 286 287 288 288 287 286 285 284 281 279 277 276 276 275 274 272 272 271 269 266 264 261 260 258 257 256 254 253 251 249 246 244 242 241 241 241 242 242 241 241 241 241 242 243 245 247 248 249 249 249 249 248 248 247 246 244 242 240 238 237 236 236 236 235 234 233 232 231 231 231 232 232 233 233 234
284 283 282 281 281 281 282 281 282 282 283 283 284 285 286 286 286 286 285 284 281 279 277 276 275 275 274 272 270 269 269 268 266 264 262 260 258 256 254 253 253 252 251 248 246 245 243 242 242 241 241 240 240 240 240 240 240 242 243 245 246 247 248 247 247 247 247 247 246 245 243 241 240 239 238 238 238 237 236 235 234 234 234 235 235 235 235
Height
10423 10422 10423 10426 10427 10426 10425 10426 10428 10435 10440 10442 10442 10442 10442 10441 10440 10440 10445 10450 10451 10453 10456 10457 10457 10457 10456 10456 10456 10457 10457 10457 10457 10457 10457 10457 10457 10458 10459 10460 10461 10462 10462 10463 10464 10465 10467 10468 10468 10470 10471 10472 10472 10473 10473 10474 10474 10475 10476 10478 10480 10480 10480 10480 10481 10482 10483 10484 10485 10485 10484 10483 10483 10483 10484 10484 10483 10482 10482 10480 10479 10478 10480 10480 10480 10479 10478
10416 10415 10415 10417 10418 10417 10417 10417 10418 10423 10429 10433 10435 10435 10434 10434 10432 10432 10436 10439 10441 10443 10446 10448 10449 10449 10449 10448 10448 10448 10449 10450 10450 10450 10449 10449 10449 10449 10451 10452 10453 10453 10454 10455 10455 10456 10457 10458 10460 10461 10462 10463 10464 10464 10465 10467 10467 10468 10468 10470 10472 10472 10472 10473 10474 10475 10476 10477 10478 10479 10479 10478 10476 10477 10479 10479 10477 10476 10475 10475 10474 10473 10474 10476 10476 10475 10474
10409 10409 10409 10410 10410 10408 10408 10410 10411 10414 10419 10424 10426 10427 10426 10425 10424 10424 10427 10429 10431 10433 10436 10437 10439 10440 10440 10440 10440 10441 10441 10441 10441 10441 10440 10440 10440 10440 10441 10442 10443 10444 10446 10446 10446 10447 10448 10449 10449 10450 10452 10454 10455 10456 10457 10459 10460 10461 10461 10462 10464 10465 10465 10466 10467 10467 10468 10469 10471 10472 10473 10472 10470 10471 10473 10473 10471 10470 10470 10472 10473 10469 10468 10470 10470 10469 10468
10402 10403 10402 10403 10402 10401 10401 10403 10406 10409 10411 10414 10416 10417 10417 10416 10415 10415 10417 10419 10421 10424 10426 10427 10428 10430 10431 10431 10432 10432 10433 10432 10432 10432 10431 10431 10431 10431 10432 10433 10433 10435 10436 10438 10438 10438 10439 10439 10439 10439 10442 10444 10446 10447 10448 10449 10451 10453 10454 10455 10456 10457 10458 10458 10459 10459 10460 10461 10463 10464 10465 10465 10464 10464 10465 10466 10465 10464 10466 10469 10468 10462 10460 10464 10464 10462 10462
10396 10397 10397 10396 10396 10395 10395 10397 10400 10402 10403 10404 10405 10406 10407 10407 10407 10407 10408 10409 10412 10414 10417 10418 10419 10420 10421 10422 10422 10423 10423 10423 10423 10423 10422 10422 10422 10422 10424 10425 10425 10426 10427 10429 10430 10430 10430 10429 10429 10430 10431 10433 10435 10436 10438 10440 10442 10444 10445 10447 10448 10450 10450 10451 10451 10452 10452 10453 10454 10455 10456 10457 10457 10457 10457 10458 10458 10458 10459 10461 10459 10455 10453 10455 10456 10456 10457
10390 10391 10391 10390 10389 10390 10391 10393 10393 10393 10395 10396 10396 10396 10396 10397 10397 10398 10399 10400 10403 10405 10408 10409 10410 10412 10412 10412 10413 10413 10413 10414 10414 10413 10413 10413 10413 10413 10414 10416 10417 10419 10419 10420 10420 10420 10420 10419 10419 10420 10421 10423 10424 10424 10426 10429 10432 10434 10436 10438 10440 10442 10442 10443 10443 10443 10444 10444 10445 10445 10446 10447 10449 10449 10449 10450 10450 10451 10451 10452 10451 10449 10447 10447 10448 10449 10449
10382 10384 10385 10383 10383 10385 10386 10386 10387 10388 10389 10389 10388 10386 10386 10386 10387 10388 10390 10392 10394 10397 10399 10400 10401 10402 10402 10402 10403 10403 10404 10404 10404 10404 10403 10403 10403 10403 10404 10405 10407 10409 10411 10411 10410 10411 10411 10411 10411 10412 10412 10414 10414 10413 10414 10417 10421 10424 10428 10431 10432 10434 10434 10434 10434 10434 10435 10436 10435 10436 10437 10438 10439 10440 10441 10442 10442 10443 10444 10444 10443 10442 10441 10441 10442 10442 10441
10375 10376 10376 10375 10376 10378 10380 10381 10382 10383 10382 10381 10380 10378 10377 10377 10378 10379 10381 10383 10385 10387 10389 10390 10391 10392 10392 10392 10393 10393 10394 10394 10394 10394 10394 10394 10394 10394 10395 10396 10397 10400 10402 10402 10402 10402 10402 10403 10404 10404 10405 10405 10405 10405 10405 10407 10410 10413 10417 10420 10422 10424 10425 10425 10425 10425 10426 10426 10427 10427 10427 10428 10428 10429 10431 10432 10433 10434 10435 10436 10435 10435 10435 10435 10435 10435 10434
10367 10367 10366 10366 10368 10372 10375 10375 10374 10374 10373 10373 10372 10371 10370 10371 10372 10372 10373 10374 10375 10377 10378 10379 10380 10380 10381 10382 10383 10384 10384 10384 10384 10385 10385 10386 10386 10386 10386 10388 10389 10392 10394 10395 10395 10394 10394 10395 10397 10397 10397 10398 10399 10398 10397 10398 10401 10402 10404 10406 10409 10412 10413 10415 10416 10416 10417 10417 10417 10417 10418 10418 10419 10420 10420 10421 10423 10425 10426 10426 10427 10428 10428 10427 10427 10426 10426
10359 10359 10357 10358 10361 10365 10367 10366 10365 10364 10364 10364 10364 10363 10363 10365 10366 10366 10365 10364 10364 10365 10367 10368 10368 10369 10371 10372 10373 10374 10375 10375 10376 10376 10377 10378 10378 10379 10380 10380 10382 10384 10387 10388 10389 10387 10386 10387 10388 10389 10389 10390 10391 10392 10391 10392 10393 10393 10393 10394 10395 10398 10400 10403 10406 10407 10408 10408 10408 10408 10409 10409 10410 10411 10411 10412 10413 10414 10416 10417 10418 10419 10419 10418 10418 10417 10416
10353 10352 10350 10351 10354 10357 10358 10358 10357 10356 10355 10354 10354 10354 10356 10360 10360 10359 10358 10355 10354 10354 10356 10357 10358 10359 10361 10363 10364 10365 10365 10366 10367 10368 10368 10369 10370 10371 10372 10372 10374 10376 10378 10380 10380 10379 10378 10378 10379 10380 10380 10380 10381 10383 10384 10385 10385 10384 10383 10383 10383 10386 10389 10391 10395 10397 10398 10398 10398 10398 10399 10400 10401 10402 10402 10402 10403 10404 10406 10407 10408 10408 10409 10408 10408 10407 10407
10346 10345 10343 10343 10347 10350 10352 10350 10348 10346 10345 10344 10343 10345 10349 10352 10351 10350 10349 10347 10345 10345 10345 10346 10347 10349 10351 10354 10355 10355 10356 10357 10358 10359 10359 10359 10359 10360 10361 10362 10364 10365 10366 10367 10368 10368 10368 10368 10368 10369 10370 10370 10371 10372 10374 10376 10376 10374 10373 10372 10374 10377 10379 10381 10384 10386 10387 10387 10388 10389 10390 10391 10392 10392 10392 10392 10392 10394 10395 10396 10397 10398 10398 10398 10398 10398 10397
10335 10335 10335 10337 10340 10344 10345 10342 10340 10338 10335 10333 10335 10339 10342 10342 10340 10340 10339 10338 10337 10337 10336 10336 10336 10337 10340 10344 10345 10346 10346 10346 10347 10348 10349 10348 10348 10349 10350 10350 10351 10352 10353 10354 10356 10356 10356 10357 10358 10359 10360 10361 10361 10361 10363 10366 10366 10364 10363 10363 10365 10367 10369 10370 10373 10376 10376 10377 10378 10379 10380 10381 10381 10381 10381 10381 10382 10384 10385 10386 10387 10388 10389 10389 10388 10387 10386
10324 10325 10327 10328 10331 10335 10336 10333 10332 10329 10324 10325 10330 10333 10332 10331 10330 10330 10329 10329 10329 10328 10328 10327 10327 10327 10329 10331 10333 10333 10333 10333 10334 10335 10336 10337 10337 10338 10339 10340 10341 10342 10342 10343 10344 10344 10344 10345 10346 10348 10349 10350 10350 10350 10352 10354 10354 10354 10354 10355 10356 10357 10358 10360 10363 10365 10366 10367 10368 10370 10370 10370 10369 10369 10370 10371 10372 10374 10376 10377 10378 10379 10379 10379 10377 10375 10375
10312 10313 10315 10317 10320 10324 10324 10323 10322 10320 10316 10316 10321 10323 10322 10322 10321 10321 10321 10321 10320 10320 10319 10319 10318 10318 10318 10318 10319 10320 10320 10320 10321 10321 10322 10324 10326 10327 10329 10330 10331 10333 10334 10334 10333 10332 10332 10331 10332 10334 10336 10338 10338 10338 10340 10340 10341 10342 10343 10345 10346 10346 10348 10350 10352 10353 10355 10356 10357 10359 10360 10359 10359 10358 10359 10360 10361 10364 10366 10368 10369 10369 10369 10368 10367 10365 10365
10301 10302 10303 10306 10308 10311 10312 10311 10311 10310 10309 10308 10309 10310 10312 10313 10312 10312 10311 10311 10311 10311 10311 10310 10309 10308 10307 10307 10307 10308 10308 10308 10308 10308 10309 10310 10313 10315 10317 10317 10318 10321 10324 10324 10323 10322 10320 10319 10318 10318 10321 10324 10325 10326 10327 10327 10328 10329 10330 10332 10333 10335 10336 10337 10339 10341 10342 10343 10346 10348 10350 10350 10349 10348 10347 10349 10351 10354 10356 10358 10359 10360 10359 10359 10357 10356 10356
10292 10293 10293 10294 10296 10298 10300 10300 10300 10300 10300 10300 10299 10300 10301 10302 10303 10302 10302 10301 10301 10301 10300 10299 10298 10297 10296 10295 10296 10297 10297 10297 10297 10297 10297 10297 10298 10300 10302 10303 10304 10305 10309 10311 10312 10312 10310 10308 10306 10305 10306 10308 10311 10313 10313 10313 10314 10316 10317 10318 10320 10322 10323 10324 10326 10328 10330 10331 10333 10335 10337 10339 10340 10339 10338 10338 10339 10341 10344 10346 10348 10348 10349 10348 10347 10347 10347
10283 10284 10284 10284 10286 10287 10289 10289 10289 10289 10290 10290 10290 10290 10291 10291 10292 10291 10290 10289 10289 10289 10288 10288 10287 10286 10285 10285 10285 10285 10286 10286 10285 10285 10285 10284 10284 10285 10287 10288 10288 10290 10292 10294 10297 10299 10299 10297 10295 10294 10293 10294 10297 10299 10299 10298 10299 10301 10303 10304 10306 10308 10310 10311 10312 10314 10317 10319 10320 10321 10324 10326 10328 10330 10329 10329 10328 10329 10331 10333 10335 10335 10336 10336 10336 10336 10337
10272 10273 10273 10274 10274 10276 10278 10279 10280 10280 10279 10279 10279 10279 10278 10279 10279 10278 10278 10278 10278 10278 10278 10278 10277 10276 10275 10274 10274 10273 10273 10273 10273 10273 10273 10273 10272 10272 10273 10273 10273 10273 10274 10276 10278 10281 10283 10283 10281 10281 10282 10283 10284 10285 10285 10284 10285 10286 10288 10290 10291 10292 10294 10296 10298 10300 10303 10305 10306 10307 10309 10312 10315 10317 10318 10318 10319 10320 10320 10321 10322 10322 10322 10322 10322 10322 10324
10261 10262 10262 10263 10263 10264 10266 10267 10267 10268 10268 10268 10268 10268 10267 10267 10266 10266 10267 10267 10267 10268 10267 10267 10266 10265 10263 10263 10263 10262 10261 10261 10260 10260 10261 10261 10260 10260 10259 10259 10258 10258 10258 10259 10260 10262 10264 10264 10264 10265 10268 10269 10270 10271 10271 10271 10271 10273 10275 10276 10277 10278 10279 10280 10283 10285 10288 10290 10292 10292 10294 10297 10301 10304 10305 10307 10308 10309 10310 10311 10311 10311 10310 10309 10308 10308 10310
10251 10251 10252 10253 10254 10254 10254 10254 10254 10255 10255 10255 10256 10257 10257 10257 10256 10255 10255 10255 10255 10255 10255 10255 10254 10253 10252 10251 10251 10251 10249 10248 10248 10248 10249 10248 10248 10247 10245 10244 10243 10244 10244 10244 10245 10247 10248 10248 10247 10247 10250 10252 10253 10255 10256 10257 10258 10260 10262 10263 10264 10265 10266 10267 10268 10270 10272 10275 10278 10278 10280 10283 10286 10288 10290 10292 10295 10297 10298 10298 10299 10299 10299 10299 10297 10296 10298
10242 10242 10243 10244 10244 10244 10244 10243 10242 10242 10241 10242 10243 10244 10245 10245 10244 10243 10243 10243 10243 10243 10243 10243 10242 10241 10240 10239 10239 10240 10238 10237 10236 10237 10236 10235 10234 10232 10230 10230 10230 10230 10231 10232 10233 10235 10235 10234 10233 10234 10234 10234 10235 10236 10239 10241 10243 10247 10249 10250 10251 10253 10254 10254 10255 10257 10258 10261 10263 10265 10268 10270 10272 10274 10274 10275 10278 10282 10283 10284 10285 10286 10287 10287 10287 10287 10288
10234 10234 10234 10234 10234 10234 10233 10233 10232 10231 10231 10231 10231 10232 10232 10232 10232 10231 10231 10231 10231 10232 10232 10231 10231 10230 10229 10228 10228 10229 10227 10225 10224 10224 10223 10222 10221 10219 10218 10219 10219 10218 10218 10218 10220 10222 10222 10221 10221 10221 10221 10220 10220 10220 10221 10224 10228 10233 10236 10238 10239 10240 10240 10241 10242 10244 10245 10247 10250 10252 10255 10257 10259 10261 10261 10261 10262 10264 10266 10267 10269 10272 10274 10275 10276 10277 10278
10225 10224 10224 10224 10224 10223 10223 10223 10223 10223 10222 10222 10221 10221 10220 10220 10220 10220 10220 10220 10220 10220 10220 10220 10220 10220 10219 10218 10218 10217 10215 10213 10212 10213 10212 10211 10210 10209 10207 10207 10206 10206 10205 10205 10207 10209 10210 10210 10210 10211 10211 10210 10209 10208 10209 10211 10214 10218 10223 10225 10227 10227 10227 10228 10229 10230 10232 10234 10237 10239 10242 10244 10245 10247 10248 10249 10248 10249 10250 10252 10255 10259 10262 10264 10265 10266 10268
10216 10216 10216 10215 10214 10214 10214 10214 10213 10213 10214 10214 10213 10212 10212 10211 10211 10210 10210 10209 10209 10209 10209 10209 10210 10210 10210 10208 10207 10206 10205 10203 10203 10203 10203 10201 10200 10199 10198 10196 10195 10195 10194 10194 10196 10197 10199 10200 10200 10201 10201 10200 10198 10198 10198 10199 10201 10205 10210 10213 10216 10216 10216 10216 10218 10219 10220 10222 10224 10227 10229 10231 10232 10233 10235 10237 10237 10237 10239 10241 10244 10248 10251 10253 10254 10256 10257
10208 10208 10207 10206 10206 10206 10205 10205 10204 10205 10205 10206 10205 10204 10204 10204 10203 10202 10201 10201 10201 10201 10201 10200 10200 10200 10200 10199 10198 10198 10197 10196 10194 10194 10193 10192 10191 10190 10190 10188 10187 10186 10185 10184 10184 10185 10186 10188 10189 10190 10190 10189 10188 10188 10189 10189 10191 10194 10197 10200 10202 10204 10204 10205 10206 10207 10209 10211 10214 10216 10218 10220 10221 10222 10224 10226 10227 10228 10229 10232 10235 10238 10240 10242 10244 10246 10247
10202 10201 10200 10199 10198 10197 10196 10196 10196 10196 10197 10196 10195 10195 10195 10195 10195 10194 10193 10193 10193 10193 10192 10192 10191 10189 10190 10190 10190 10189 10189 10187 10186 10186 10185 10184 10183 10182 10181 10179 10178 10177 10176 10175 10175 10175 10176 10177 10178 10179 10180 10179 10180 10181 10181 10182 10182 10183 10184 10186 10189 10191 10193 10194 10196 10197 10199 10202 10204 10206 10207 10209 10210 10212 10214 10216 10217 10218 10220 10223 10226 10229 10231 10233 10234 10235 10236
10195 10194 10194 10192 10191 10190 10189 10189 10190 10189 10189 10188 10186 10186 10186 10186 10186 10185 10185 10185 10185 10184 10184 10183 10181 10180 10180 10181 10180 10180 10180 10179 10178 10178 10177 10175 10174 10173 10171 10170 10169 10169 10168 10168 10167 10168 10168 10168 10169 10169 10170 10170 10171 10172 10172 10172 10173 10173 10173 10175 10177 10180 10182 10184 10186 10188 10190 10193 10196 10197 10198 10199 10200 10202 10204 10206 10207 10209 10211 10214 10217 10220 10221 10223 10224 10225 10226
10187 10187 10186 10185 10184 10183 10183 10183 10183 10182 10182 10180 10179 10179 10178 10178 10177 10177 10177 10177 10176 10176 10175 10174 10173 10172 10172 10172 10171 10171 10171 10170 10169 10168 10167 10166 10165 10164 10163 10162 10162 10161 10161 10160 10160 10159 10159 10159 10159 10159 10159 10160 10161 10162 10162 10163 10164 10164 10164 10165 10167 10169 10170 10173 10176 10178 10180 10183 10186 10188 10189 10190 10191 10193 10195 10197 10198 10200 10203 10205 10208 10210 10211 10213 10214 10216 10218
10181 10180 10179 10178 10177 10177 10177 10176 10175 10175 10174 10173 10172 10172 10171 10170 10169 10169 10169 10169 10169 10168 10167 10166 10165 10166 10165 10164 10163 10163 10163 10162 10161 10159 10158 10158 10157 10156 10155 10154 10154 10153 10152 10152 10151 10151 10150 10150 10151 10151 10151 10152 10152 10153 10153 10154 10155 10155 10156 10157 10158 10159 10161 10163 10166 10169 10171 10173 10175 10177 10179 10181 10182 10184 10186 10189 10190 10192 10194 10197 10199 10200 10202 10204 10206 10208 10211
10175 10173 10172 10172 10172 10171 10170 10168 10168 10167 10167 10166 10166 10165 10163 10163 10162 10162 10162 10162 10162 10160 10159 10159 10159 10160 10159 10157 10156 10155 10154 10153 10152 10152 10151 10151 10150 10148 10147 10147 10146 10146 10145 10144 10144 10143 10143 10143 10143 10143 10143 10144 10144 10145 10145 10145 10146 10147 10148 10149 10150 10151 10153 10155 10158 10160 10162 10164 10166 10168 10170 10172 10174 10176 10178 10181 10183 10184 10186 10188 10190 10191 10193 10196 10198 10201 10204
10169 10168 10167 10166 10166 10165 10163 10161 10161 10160 10159 10159 10158 10157 10157 10156 10155 10155 10156 10155 10154 10153 10152 10152 10153 10153 10152 10150 10149 10148 10147 10146 10146 10146 10145 10144 10142 10141 10141 10140 10139 10139 10138 10137 10137 10136 10136 10136 10136 10137 10137 10137 10137 10138 10138 10138 10139 10140 10141 10142 10143 10144 10146 10148 10150 10152 10154 10156 10158 10160 10162 10164 10166 10168 10170 10173 10175 10177 10179 10180 10182 10184 10187 10189 10192 10194 10197
10165 10164 10163 10162 10160 10159 10157 10156 10155 10154 10153 10152 10151 10150 10150 10150 10149 10149 10149 10148 10147 10146 10146 10146 10146 10146 10145 10144 10143 10142 10140 10139 10139 10139 10139 10137 10136 10135 10134 10134 10133 10132 10132 10131 10131 10130 10130 10130 10131 10131 10131 10131 10131 10131 10132 10132 10133 10134 10135 10135 10136 10137 10139 10140 10142 10144 10146 10148 10150 10152 10154 10156 10158 10161 10163 10166 10168 10170 10171 10173 10175 10177 10180 10183 10185 10187 10190
10160 10159 10158 10157 10155 10154 10152 10150 10150 10148 10147 10146 10145 10144 10144 10143 10143 10143 10143 10142 10141 10140 10140 10140 10140 10140 10139 10138 10137 10136 10134 10133 10133 10133 10132 10131 10130 10129 10129 10128 10127 10127 10127 10126 10126 10126 10125 10125 10125 10125 10126 10126 10126 10125 10126 10126 10127 10128 10129 10130 10130 10131 10132 10134 10135 10137 10139 10141 10143 10145 10147 10149 10151 10154 10156 10158 10161 10163 10165 10167 10169 10171 10174 10176 10178 10181 10183
10155 10154 10153 10152 10150 10148 10147 10145 10144 10143 10141 10140 10139 10138 10138 10138 10137 10137 10136 10136 10135 10135 10134 10134 10134 10134 10133 10132 10131 10130 10128 10128 10128 10127 10126 10125 10125 10124 10123 10123 10122 10122 10122 10122 10122 10121 10120 10120 10120 10120 10120 10120 10120 10120 10121 10121 10122 10123 10124 10125 10126 10126 10127 10128 10130 10131 10133 10135 10137 10139 10141 10143 10145 10147 10150 10152 10154 10157 10159 10161 10163 10165 10167 10170 10172 10174 10176
10149 10148 10148 10146 10145 10143 10142 10140 10139 10137 10136 10135 10134 10133 10133 10132 10132 10131 10131 10131 10130 10130 10129 10129 10128 10128 10127 10126 10125 10124 10123 10122 10122 10122 10121 10121 10120 10119 10119 10118 10118 10118 10119 10118 10118 10116 10116 10115 10115 10115 10116 10116 10116 10116 10116 10117 10117 10118 10119 10120 10121 10122 10123 10124 10125 10126 10128 10130 10131 10133 10135 10137 10139 10141 10144 10146 10149 10151 10153 10155 10157 10160 10162 10164 10166 10168 10170
10143 10143 10142 10141 10140 10138 10137 10135 10134 10132 10131 10130 10129 10128 10128 10127 10127 10126 10126 10126 10125 10124 10124 10123 10123 10122 10121 10120 10120 10119 10118 10117 10117 10117 10117 10116 10116 10115 10114 10114 10114 10114 10114 10114 10114 10113 10112 10111 10111 10112 10112 10112 10112 10112 10112 10113 10113 10114 10115 10115 10116 10117 10118 10119 10121 10122 10123 10125 10126 10128 10130 10132 10134 10136 10139 10141 10143 10145 10148 10150 10152 10154 10156 10158 10160 10162 10163
10138 10138 10137 10136 10135 10133 10132 10131 10129 10128 10126 10125 10124 10123 10123 10123 10122 10121 10121 10121 10120 10119 10119 10118 10117 10117 10116 10115 10115 10114 10113 10113 10113 10113 10113 10112 10112 10111 10110 10110 10110 10110 10110 10110 10110 10110 10109 10108 10108 10109 10109 10109 10109 10109 10109 10110 10110 10111 10111 10112 10112 10113 10114 10115 10116 10118 10119 10120 10122 10123 10125 10127 10129 10131 10133 10136 10138 10140 10142 10145 10147 10149 10151 10152 10154 10155 10157
10133 10133 10132 10131 10130 10129 10127 10126 10125 10124 10122 10121 10120 10119 10119 10118 10117 10117 10116 10116 10115 10115 10114 10113 10112 10112 10111 10111 10111 10110 10109 10108 10109 10109 10109 10108 10108 10107 10107 10107 10106 10106 10106 10106 10106 10107 10106 10106 10106 10106 10106 10106 10106 10106 10106 10107 10107 10108 10108 10109 10109 10110 10110 10111 10112 10114 10115 10116 10118 10119 10121 10123 10125 10127 10129 10131 10134 10136 10138 10140 10142 10143 10145 10146 10148 10150 10153
10129 10128 10127 10126 10125 10124 10123 10122 10121 10119 10118 10117 10116 10115 10114 10114 10113 10112 10112 10112 10111 10110 10109 10108 10107 10107 10107 10107 10106 10106 10105 10105 10105 10105 10105 10105 10104 10104 10104 10103 10103 10103 10102 10102 10103 10103 10104 10104 10104 10104 10104 10104 10104 10104 10104 10104 10104 10105 10105 10106 10107 10107 10108 10108 10109 10110 10112 10113 10114 10116 10118 10119 10121 10123 10125 10127 10129 10131 10133 10135 10137 10138 10140 10142 10144 10146 10149
10124 10123 10123 10122 10120 10119 10118 10117 10116 10115 10114 10113 10112 10111 10110 10110 10109 10108 10107 10107 10107 10106 10105 10104 10103 10103 10102 10102 10102 10102 10102 10101 10101 10101 10101 10101 10100 10100 10100 10100 10100 10100 10099 10099 10099 10100 10101 10101 10102 10102 10102 10102 10102 10102 10102 10102 10102 10102 10103 10103 10104 10105 10106 10106 10107 10108 10109 10110 10111 10113 10114 10116 10117 10119 10121 10123 10125 10127 10129 10130 10132 10134 10135 10137 10140 10142 10144
10119 10119 10118 10117 10116 10115 10114 10113 10112 10111 10110 10109 10108 10107 10106 10106 10105 10104 10103 10102 10102 10102 10101 10100 10099 10098 10098 10098 10098 10098 10098 10098 10097 10097 10097 10097 10097 10097 10097 10097 10097 10096 10096 10096 10096 10097 10098 10098 10099 10100 10100 10100 10100 10100 10100 10100 10100 10100 10101 10101 10101 10102 10103 10104 10105 10106 10107 10108 10109 10110 10111 10112 10114 10115 10117 10119 10121 10122 10124 10126 10127 10129 10131 10133 10135 10137 10138
10114 10113 10113 10112 10111 10110 10110 10109 10108 10107 10106 10105 10104 10103 10102 10102 10101 10101 10100 10098 10098 10098 10098 10097 10096 10095 10094 10094 10094 10094 10094 10094 10094 10094 10093 10093 10093 10093 10093 10093 10093 10093 10093 10093 10093 10094 10095 10095 10096 10097 10097 10098 10098 10098 10098 10098 10098 10099 10099 10099 10099 10100 10100 10101 10102 10103 10104 10106 10107 10108 10109 10110 10111 10112 10114 10115 10116 10118 10119 10121 10123 10125 10126 10128 10130 10132 10133
10110 10108 10108 10108 10107 10106 10105 10104 10103 10103 10102 10101 10100 10099 10098 10098 10097 10097 10096 10095 10094 10093 10093 10093 10093 10092 10091 10090 10090 10090 10091 10091 10091 10091 10090 10090 10090 10090 10090 10090 10090 10090 10090 10090 10091 10091 10092 10092 10093 10094 10094 10095 10095 10096 10096 10096 10097 10097 10097 10098 10098 10098 10099 10100 10100 10101 10102 10103 10104 10105 10106 10107 10108 10109 10111 10112 10113 10114 10116 10117 10119 10121 10122 10124 10126 10127 10129
10106 10104 10103 10103 10102 10101 10100 10100 10099 10098 10098 10097 10096 10095 10094 10094 10093 10092 10092 10092 10091 10090 10089 10089 10089 10088 10088 10087 10087 10087 10087 10087 10087 10087 10087 10087 10087 10087 10087 10087 10087 10087 10087 10087 10088 10088 10089 10089 10090 10091 10091 10092 10092 10093 10093 10094 10094 10095 10096 10096 10096 10097 10097 10098 10099 10100 10100 10101 10102 10103 10104 10105 10106 10107 10108 10109 10110 10112 10113 10114 10116 10117 10119 10120 10122 10123 10125
10101 10100 10098 10098 10098 10097 10096 10095 10095 10094 10093 10093 10092 10091 10090 10089 10089 10088 10088 10088 10087 10086 10085 10085 10085 10085 10084 10084 10083 10083 10083 10083 10083 10083 10083 10083 10084 10084 10084 10084 10084 10084 10084 10084 10085 10085 10086 10087 10087 10088 10089 10089 10089 10090 10090 10091 10092 10092 10093 10094 10094 10095 10096 10096 10097 10098 10098 10099 10100 10101 10102 10103 10104 10105 10106 10107 10108 10109 10110 10112 10113 10114 10116 10117 10118 10120 10121
10096 10095 10094 10093 10093 10093 10092 10091 10090 10090 10089 10088 10088 10087 10086 10086 10085 10084 10084 10083 10083 10083 10082 10081 10081 10081 10081 10080 10080 10079 10079 10079 10079 10079 10080 10080 10080 10080 10081 10081 10081 10081 10081 10081 10082 10082 10083 10084 10085 10085 10086 10086 10087 10087 10088 10088 10089 10090 10090 10091 10092 10093 10093 10094 10095 10095 10096 10097 10098 10099 10100 10101 10102 10103 10104 10105 10106 10107 10108 10109 10110 10111 10113 10114 10115 10117 10118
10092 10091 10089 10088 10088 10088 10088 10087 10086 10085 10085 10084 10083 10083 10082 10082 10081 10080 10079 10079 10079 10079 10078 10078 10077 10077 10077 10076 10076 10076 10075 10075 10075 10075 10076 10076 10077 10077 10077 10077 10078 10078 10078 10078 10078 10079 10079 10080 10081 10082 10083 10083 10084 10085 10085 10086 10087 10087 10088 10089 10089 10090 10091 10092 10092 10093 10094 10095 10096 10097 10097 10098 10099 10100 10101 10102 10103 10104 10105 10106 10107 10108 10110 10111 10112 10113 10115
10088 10087 10085 10084 10084 10084 10083 10083 10082 10081 10080 10080 10079 10078 10078 10078 10077 10076 10075 10075 10074 10074 10074 10074 10073 10073 10073 10072 10072 10072 10072 10072 10072 10071 10072 10072 10073 10073 10074 10074 10074 10075 10075 10075 10075 10076 10076 10077 10077 10078 10079 10080 10081 10082 10082 10083 10084 10085 10085 10086 10087 10087 10088 10089 10090 10090 10091 10092 10093 10094 10095 10096 10096 10097 10098 10099 10100 10102 10103 10104 10105 10106 10107 10108 10109 10110 10111
10083 10082 10081 10080 10079 10079 10079 10078 10077 10077 10076 10075 10074 10074 10074 10073 10072 10072 10071 10071 10070 10070 10070 10070 10070 10069 10069 10069 10068 10068 10068 10068 10068 10068 10068 10068 10069 10069 10070 10070 10071 10071 10071 10072 10072 10072 10073 10073 10074 10074 10075 10076 10077 10078 10079 10080 10080 10081 10082 10083 10083 10084 10085 10086 10087 10087 10088 10089 10090 10091 10092 10092 10093 10094 10095 10096 10097 10098 10099 10100 10101 10102 10103 10104 10105 10106 10107
10078 10077 10077 10075 10074 10074 10074 10074 10073 10072 10072 10071 10070 10069 10069 10068 10068 10067 10067 10067 10066 10066 10065 10065 10065 10065 10065 10065 10065 10064 10064 10064 10064 10064 10064 10064 10065 10065 10066 10066 10066 10067 10067 10068 10068 10068 10069 10069 10070 10070 10071 10072 10073 10074 10074 10075 10076 10077 10078 10078 10079 10080 10081 10082 10083 10083 10084 10085 10086 10087 10088 10089 10090 10090 10091 10092 10093 10094 10095 10096 10097 10098 10099 10100 10101 10102 10103
10072 10072 10071 10071 10070 10069 10069 10069 10068 10067 10067 10066 10066 10065 10064 10064 10063 10063 10062 10062 10062 10061 10061 10061 10060 10061 10061 10061 10061 10061 10060 10060 10060 10060 10060 10060 10060 10061 10061 10062 10062 10062 10063 10063 10064 10064 10065 10065 10066 10066 10067 10067 10068 10069 10069 10070 10071 10072 10073 10073 10074 10075 10076 10077 10078 10079 10080 10081 10082 10082 10083 10084 10085 10086 10087 10088 10089 10090 10091 10092 10093 10094 10095 10096 10097 10098 10099